Regional Weather Roundup
Issued by NWS

Home | Current Version | Previous Version | Graphics & Text | Print | Product List | Glossary On
Versions: 1 2 3 4 5 6 7 8 9 10 11 12 13 14 15 16 17 18 19 20 21 22 23 24 25 26 27 28 29 30 31 32 33 34 35 36 37 38 39 40 41 42 43 44 45 46 47 48 49 50
000
ASUS43 KDTX 170510
RWRMI
MICHIGAN HOURLY REGIONAL WEATHER ROUNDUP
NATIONAL WEATHER SERVICE DETROIT/PONTIAC MI
1200 AM EST FRI NOV 17 2017

NOTE: "FAIR" INDICATES FEW OR NO CLOUDS BELOW 12,000 FEET WITH NO
SIGNIFICANT WEATHER AND/OR OBSTRUCTION TO VISIBILITY.

MIZ047>049-052>055-059>063-066>070-074>076-081>083-170600-
SOUTHEAST LOWER MICHIGAN

CITY           SKY/WX    TMP DP  RH WIND       PRES   REMARKS
ADRIAN         MOCLDY    34  27  75 CALM      30.25S
ALMA           CLEAR     30  26  88 CALM      30.26S
ANN ARBOR      MOCLDY    33  26  75 N5        30.23F WCI  29
BAD AXE        CLOUDY    32  24  72 NW6       30.26R WCI  26
CARO           CLOUDY    32  24  72 NW5       30.25S WCI  28
DETROIT CITY   CLOUDY    36  27  69 N7        30.25S WCI  30
DETROIT        CLOUDY    37  27  67 NW6       30.26R WCI  32
FLINT          CLOUDY    32  24  72 N3        30.25F
GROSSE ILE     CLOUDY    37  28  71 CALM      30.24S
HILLSDALE      CLOUDY    30  27  86 CALM      30.21S
HOWELL         CLOUDY    32  27  81 NE3       30.23F

CITY           SKY/WX    TMP DP  RH WIND       PRES   REMARKS
JACKSON        CLEAR     32  26  78 CALM      30.23F
LAMBERTVILLE   CLOUDY    38  29  70 CALM      30.24S
LANSING        PTCLDY    27  25  92 CALM      30.25F
LAPEER         CLOUDY    32  25  74 N8        30.25S WCI  25
MASON          CLEAR     31  28  86 CALM      30.23F
MONROE         CLOUDY    36  27  70 N3        30.24F
MT. CLEMENS    CLOUDY    35  28  75 NW8       30.24S WCI  28
PONTIAC        CLOUDY    34  27  75 NW5       30.22F WCI  30
PORT HOPE        N/A     34  25  69 VRB7      30.24R WCI  28
PORT HURON     CLOUDY    32  23  69 NW5       30.26R WCI  27
TRI CITIES     CLOUDY    31  25  78 N5        30.27S WCI  26
MIDLAND        CLOUDY    31  25  79 CALM      30.26S
TROY           CLOUDY    38  28  69 CALM      30.26S
SAGINAW HB     CLOUDY    32  27  80 CALM      30.26S
$$
MIZ043>046-050>051-056>058-064>065-071>073-077>080-170600-
SOUTHWEST LOWER MICHIGAN

CITY           SKY/WX    TMP DP  RH WIND       PRES   REMARKS
BATTLE CREEK   CLOUDY    34  29  82 CALM      30.24S
BENTON HARBOR  CLOUDY    37  34  89 SE5       30.23F WCI  33
BIG RAPIDS     CLOUDY    29  24  82 SE3       30.22S
COLDWATER      CLOUDY    37  29  73 CALM      30.24S
FREMONT        CLOUDY    31  28  87 E3        30.23F
HOLLAND        CLOUDY    32  28  85 CALM      30.25S
GRAND RAPIDS   PTCLDY    30  28  92 CALM      30.24S
IONIA          CLOUDY    30  26  83 CALM      30.24S
KALAMAZOO      CLOUDY    38  28  67 CALM      30.24S
LUDINGTON      CLOUDY    29  24  79 E5        30.21F WCI  24
MARSHALL       CLOUDY    31  28  88 CALM      30.24R
MOUNT PLEASANT CLEAR     30  24  79 CALM      30.24F
MUSKEGON       PTCLDY    29  25  85 E3        30.24F
SOUTH HAVEN    CLOUDY    35  30  83 E6        30.23F WCI  30
$$
MIZ016>042-170600-
NORTHERN LOWER MICHIGAN

CITY           SKY/WX    TMP DP  RH WIND       PRES   REMARKS
ALPENA         CLOUDY    29  21  72 N5        30.28R WCI  24
BEAVER ISLAND  PTCLDY    24  22  93 NE3       30.24F
BELLAIRE       CLOUDY    29  24  81 NE3       30.25F
CADILLAC       MOCLDY    26  22  85 E6        30.19F WCI  19
CHARLEVOIX     CLOUDY    29  20  70 E7        30.27F WCI  21
FRANKFORT      PTCLDY    32  24  72 CALM      30.22F
GAYLORD        CLOUDY    24  17  74 CALM      30.22F
GRAYLING       CLOUDY    26  19  76 CALM      30.24F
HARBOR SPRINGS CLOUDY    25  20  83 CALM      30.26S
HOUGHTON LAKE  CLOUDY    25  20  81 E5        30.24S WCI  19
MANISTEE       CLOUDY    28  23  81 E7        30.21F WCI  21
OSCODA         CLOUDY    30  20  65 NW6       30.26R WCI  24
PELLSTON       CLOUDY    27  22  81 CALM      30.27F
ROGERS CITY    CLOUDY    29  21  71 CALM      30.29R
TRAVERSE CITY  CLOUDY    31  23  72 E6        30.23F WCI  25
$$
MIZ007>008-015-170600-
EASTERN UPPER MICHIGAN

CITY           SKY/WX    TMP DP  RH WIND       PRES   REMARKS
KINROSS        CLEAR     17  15  92 E5        30.27F WCI  10
MACKINAC ISLAN CLOUDY    27  19  72 NE3       30.27S
NEWBERRY       CLOUDY    24  21  89 E6        30.23F WCI  17
S. S. MARIE    MOCLDY    22  14  71 NE5       30.28S WCI  16
MUNISING         N/A     24  21  88 S5        30.22F WCI  18
$$
MIZ004>006-011>014-085-170600-
CENTRAL UPPER MICHIGAN

CITY           SKY/WX    TMP DP  RH WIND       PRES   REMARKS
MANISTIQUE     CLOUDY    17  13  82 E5        30.23F WCI  10
ESCANABA       CLOUDY    27  22  81 E5        30.24S WCI  22
SAWYER-GWINN   CLOUDY    24  20  85 S9        30.18S WCI  14
$$
MIZ001>003-009>011-084-170600-
WESTERN UPPER MICHIGAN

CITY           SKY/WX    TMP DP  RH WIND       PRES   REMARKS
IRON MOUNTAIN  CLOUDY    26  18  71 S7        30.19R WCI  18
HOUGHTON       CLOUDY    26  20  77 SE12      30.15R WCI  16
COPPER HARBOR    N/A     28  20  71 VRB5      30.17F WCI  23
IRONWOOD       CLOUDY    28  23  81 SE8       30.08F WCI  20
$$

ABBREVIATIONS USED IN REMARKS
   TC - TEMPERATURE IN CELSIUS
  WCI - WIND CHILL INDEX
   HX - HEAT INDEX
  VSB - VISIBILITY





USA.gov is the U.S. government's official web portal to all federal, state and local government web resources and services.